Time,TemperatureF,DewpointF,PressureIn,WindDirection,WindDirectionDegrees,WindSpeedMPH,WindSpeedGustMPH,Humidity,HourlyPrecipIn,Conditions,Clouds,dailyrainin,SolarRadiationWatts/m^2,SoftwareType,DateUTC
2013-11-05 00:22:00,52.0,37.0,-100.00,North,8,2.0,7.0,57,0.00,,,0.00,0.000000,,2013-11-05 08:22:00,
2013-11-05 00:32:00,52.0,37.0,-100.00,North,8,2.0,7.0,57,0.00,,,0.00,0.000000,,2013-11-05 08:32:00,
2013-11-05 00:42:00,52.0,37.0,-100.00,North,8,2.0,7.0,57,0.00,,,0.00,0.000000,,2013-11-05 08:42:00,
2013-11-05 00:52:00,50.0,34.0,-100.00,NNE,30,1.0,4.0,53,0.00,,,0.00,0.000000,,2013-11-05 08:52:00,
2013-11-05 01:22:00,50.0,34.0,-100.00,NNE,30,1.0,4.0,53,0.00,,,0.00,0.000000,,2013-11-05 09:22:00,
2013-11-05 01:33:00,50.0,34.0,-100.00,NNE,30,1.0,4.0,53,0.00,,,0.00,0.000000,,2013-11-05 09:33:00,
2013-11-05 01:43:00,50.0,34.0,-100.00,NNE,30,1.0,4.0,53,0.00,,,0.00,0.000000,,2013-11-05 09:43:00,
2013-11-05 01:52:00,55.0,25.0,-100.00,NNW,335,4.0,8.0,31,0.00,,,0.00,0.000000,,2013-11-05 09:52:00,
2013-11-05 02:23:00,55.0,25.0,-100.00,NNW,335,4.0,8.0,31,0.00,,,0.00,0.000000,,2013-11-05 10:23:00,
2013-11-05 02:33:00,55.0,25.0,-100.00,NNW,335,4.0,8.0,31,0.00,,,0.00,0.000000,,2013-11-05 10:33:00,
2013-11-05 02:42:00,55.0,25.0,-100.00,NNW,335,4.0,8.0,31,0.00,,,0.00,0.000000,,2013-11-05 10:42:00,
2013-11-05 02:52:00,48.0,27.0,-100.00,NE,48,2.0,6.0,43,0.00,,,0.00,0.000000,,2013-11-05 10:52:00,
2013-11-05 03:22:00,48.0,27.0,-100.00,NE,48,2.0,6.0,43,0.00,,,0.00,0.000000,,2013-11-05 11:22:00,
2013-11-05 03:33:00,48.0,27.0,-100.00,NE,48,2.0,6.0,43,0.00,,,0.00,0.000000,,2013-11-05 11:33:00,
2013-11-05 03:42:00,48.0,27.0,-100.00,NE,48,2.0,6.0,43,0.00,,,0.00,0.000000,,2013-11-05 11:42:00,
2013-11-05 03:52:00,49.0,29.0,-100.00,NNE,30,2.0,4.0,45,0.00,,,0.00,0.000000,,2013-11-05 11:52:00,
2013-11-05 04:22:00,49.0,29.0,-100.00,NNE,30,2.0,4.0,45,0.00,,,0.00,0.000000,,2013-11-05 12:22:00,
2013-11-05 04:31:00,49.0,29.0,-100.00,NNE,30,2.0,4.0,45,0.00,,,0.00,0.000000,,2013-11-05 12:31:00,
2013-11-05 04:42:00,49.0,29.0,-100.00,NNE,30,2.0,4.0,45,0.00,,,0.00,0.000000,,2013-11-05 12:42:00,
2013-11-05 04:52:00,55.0,26.0,-100.00,NNW,333,4.0,9.0,32,0.00,,,0.00,0.000000,,2013-11-05 12:52:00,
2013-11-05 05:21:00,55.0,26.0,-100.00,NNW,333,4.0,9.0,32,0.00,,,0.00,0.000000,,2013-11-05 13:21:00,
2013-11-05 05:32:00,55.0,26.0,-100.00,NNW,333,4.0,9.0,32,0.00,,,0.00,0.000000,,2013-11-05 13:32:00,
2013-11-05 05:42:00,55.0,26.0,-100.00,NNW,333,4.0,9.0,32,0.00,,,0.00,0.000000,,2013-11-05 13:42:00,
2013-11-05 06:42:00,58.0,21.0,-100.00,NNE,32,5.0,16.0,24,0.00,,,0.00,0.000000,,2013-11-05 14:42:00,
2013-11-05 06:52:00,58.0,23.0,-100.00,NNW,334,5.0,10.0,26,0.00,,,0.00,2.000000,,2013-11-05 14:52:00,
2013-11-05 07:43:00,58.0,23.0,-100.00,NNW,334,5.0,10.0,26,0.00,,,0.00,2.000000,,2013-11-05 15:43:00,
2013-11-05 07:52:00,58.0,23.0,-100.00,WSW,247,4.0,14.0,26,0.00,,,0.00,18.000000,,2013-11-05 15:52:00,
2013-11-05 08:23:00,58.0,23.0,-100.00,WSW,247,4.0,14.0,26,0.00,,,0.00,18.000000,,2013-11-05 16:23:00,
2013-11-05 08:32:00,58.0,23.0,-100.00,WSW,247,4.0,14.0,26,0.00,,,0.00,18.000000,,2013-11-05 16:32:00,
2013-11-05 08:43:00,58.0,23.0,-100.00,WSW,247,4.0,14.0,26,0.00,,,0.00,18.000000,,2013-11-05 16:43:00,
2013-11-05 08:52:00,62.0,29.0,-100.00,SE,134,4.0,8.0,29,0.00,,,0.00,158.000000,,2013-11-05 16:52:00,
2013-11-05 09:22:00,62.0,29.0,-100.00,SE,134,4.0,8.0,29,0.00,,,0.00,158.000000,,2013-11-05 17:22:00,
2013-11-05 09:32:00,62.0,29.0,-100.00,SE,134,4.0,8.0,29,0.00,,,0.00,158.000000,,2013-11-05 17:32:00,
2013-11-05 09:42:00,62.0,29.0,-100.00,SE,134,4.0,8.0,29,0.00,,,0.00,158.000000,,2013-11-05 17:42:00,
2013-11-05 09:52:00,67.0,27.0,-100.00,North,9,7.0,15.0,22,0.00,,,0.00,190.000000,,2013-11-05 17:52:00,
2013-11-05 10:22:00,67.0,27.0,-100.00,North,9,7.0,15.0,22,0.00,,,0.00,190.000000,,2013-11-05 18:22:00,
2013-11-05 10:32:00,67.0,27.0,-100.00,North,9,7.0,15.0,22,0.00,,,0.00,190.000000,,2013-11-05 18:32:00,
2013-11-05 10:42:00,67.0,27.0,-100.00,North,9,7.0,15.0,22,0.00,,,0.00,190.000000,,2013-11-05 18:42:00,
2013-11-05 10:52:00,71.0,24.0,-100.00,South,183,6.0,11.0,17,0.00,,,0.00,536.000000,,2013-11-05 18:52:00,
2013-11-05 11:22:00,71.0,24.0,-100.00,South,183,6.0,11.0,17,0.00,,,0.00,536.000000,,2013-11-05 19:22:00,
2013-11-05 11:32:00,71.0,24.0,-100.00,South,183,6.0,11.0,17,0.00,,,0.00,536.000000,,2013-11-05 19:32:00,
2013-11-05 11:42:00,71.0,24.0,-100.00,South,183,6.0,11.0,17,0.00,,,0.00,536.000000,,2013-11-05 19:42:00,
2013-11-05 11:52:00,73.0,27.0,-100.00,South,187,6.0,14.0,18,0.00,,,0.00,599.000000,,2013-11-05 19:52:00,
2013-11-05 12:22:00,73.0,27.0,-100.00,South,187,6.0,14.0,18,0.00,,,0.00,599.000000,,2013-11-05 20:22:00,
2013-11-05 12:32:00,73.0,27.0,-100.00,South,187,6.0,14.0,18,0.00,,,0.00,599.000000,,2013-11-05 20:32:00,
2013-11-05 12:42:00,73.0,27.0,-100.00,South,187,6.0,14.0,18,0.00,,,0.00,599.000000,,2013-11-05 20:42:00,
2013-11-05 12:52:00,74.0,26.0,-100.00,NW,321,6.0,13.0,17,0.00,,,0.00,607.000000,,2013-11-05 20:52:00,
2013-11-05 13:22:00,74.0,26.0,-100.00,NW,321,6.0,13.0,17,0.00,,,0.00,607.000000,,2013-11-05 21:22:00,
2013-11-05 13:33:00,74.0,26.0,-100.00,NW,321,6.0,13.0,17,0.00,,,0.00,607.000000,,2013-11-05 21:33:00,
2013-11-05 13:44:00,74.0,26.0,-100.00,NW,321,6.0,13.0,17,0.00,,,0.00,607.000000,,2013-11-05 21:44:00,
2013-11-05 13:52:00,74.0,26.0,-100.00,North,1,7.0,15.0,17,0.00,,,0.00,558.000000,,2013-11-05 21:52:00,
2013-11-05 14:23:00,74.0,26.0,-100.00,North,1,7.0,15.0,17,0.00,,,0.00,558.000000,,2013-11-05 22:23:00,
2013-11-05 14:34:00,74.0,26.0,-100.00,North,1,7.0,15.0,17,0.00,,,0.00,558.000000,,2013-11-05 22:34:00,
2013-11-05 14:43:00,74.0,26.0,-100.00,North,1,7.0,15.0,17,0.00,,,0.00,558.000000,,2013-11-05 22:43:00,
2013-11-05 14:52:00,73.0,26.0,-100.00,WNW,292,7.0,15.0,17,0.00,,,0.00,408.000000,,2013-11-05 22:52:00,
2013-11-05 15:22:00,73.0,26.0,-100.00,WNW,292,7.0,15.0,17,0.00,,,0.00,408.000000,,2013-11-05 23:22:00,
2013-11-05 15:34:00,73.0,26.0,-100.00,WNW,292,7.0,15.0,17,0.00,,,0.00,408.000000,,2013-11-05 23:34:00,
2013-11-05 15:42:00,73.0,26.0,-100.00,WNW,292,7.0,15.0,17,0.00,,,0.00,408.000000,,2013-11-05 23:42:00,
2013-11-05 15:52:00,71.0,31.0,-100.00,WSW,241,6.0,12.0,23,0.00,,,0.00,320.000000,,2013-11-05 23:52:00,
2013-11-05 16:22:00,71.0,31.0,-100.00,WSW,241,6.0,12.0,23,0.00,,,0.00,320.000000,,2013-11-06 00:22:00,
2013-11-05 16:32:00,71.0,31.0,-100.00,WSW,241,6.0,12.0,23,0.00,,,0.00,320.000000,,2013-11-06 00:32:00,
2013-11-05 16:42:00,71.0,31.0,-100.00,WSW,241,6.0,12.0,23,0.00,,,0.00,320.000000,,2013-11-06 00:42:00,
2013-11-05 16:52:00,66.0,32.0,-100.00,NW,307,4.0,11.0,28,0.00,,,0.00,115.000000,,2013-11-06 00:52:00,
2013-11-05 17:21:00,66.0,32.0,-100.00,NW,307,4.0,11.0,28,0.00,,,0.00,115.000000,,2013-11-06 01:21:00,
2013-11-05 17:32:00,66.0,32.0,-100.00,NW,307,4.0,11.0,28,0.00,,,0.00,115.000000,,2013-11-06 01:32:00,
2013-11-05 17:42:00,66.0,32.0,-100.00,NW,307,4.0,11.0,28,0.00,,,0.00,115.000000,,2013-11-06 01:42:00,
2013-11-05 17:52:00,60.0,30.0,-100.00,NE,43,2.0,7.0,32,0.00,,,0.00,2.000000,,2013-11-06 01:52:00,
2013-11-05 18:23:00,60.0,30.0,-100.00,NE,43,2.0,7.0,32,0.00,,,0.00,2.000000,,2013-11-06 02:23:00,
2013-11-05 18:32:00,60.0,30.0,-100.00,NE,43,2.0,7.0,32,0.00,,,0.00,2.000000,,2013-11-06 02:32:00,
2013-11-05 18:42:00,60.0,30.0,-100.00,NE,43,2.0,7.0,32,0.00,,,0.00,2.000000,,2013-11-06 02:42:00,
2013-11-05 18:52:00,57.0,27.0,-100.00,North,8,1.0,5.0,31,0.00,,,0.00,0.000000,,2013-11-06 02:52:00,
2013-11-05 19:22:00,57.0,27.0,-100.00,North,8,1.0,5.0,31,0.00,,,0.00,0.000000,,2013-11-06 03:22:00,
2013-11-05 19:34:00,57.0,27.0,-100.00,North,8,1.0,5.0,31,0.00,,,0.00,0.000000,,2013-11-06 03:34:00,
2013-11-05 19:43:00,57.0,27.0,-100.00,North,8,1.0,5.0,31,0.00,,,0.00,0.000000,,2013-11-06 03:43:00,
2013-11-05 19:52:00,55.0,28.0,-100.00,ENE,77,1.0,4.0,35,0.00,,,0.00,0.000000,,2013-11-06 03:52:00,
2013-11-05 20:24:00,55.0,28.0,-100.00,ENE,77,1.0,4.0,35,0.00,,,0.00,0.000000,,2013-11-06 04:24:00,
2013-11-05 20:34:00,55.0,28.0,-100.00,ENE,77,1.0,4.0,35,0.00,,,0.00,0.000000,,2013-11-06 04:34:00,
2013-11-05 20:43:00,55.0,28.0,-100.00,ENE,77,1.0,4.0,35,0.00,,,0.00,0.000000,,2013-11-06 04:43:00,
2013-11-05 20:52:00,54.0,28.0,-100.00,West,264,2.0,4.0,37,0.00,,,-99.99,0.000000,,2013-11-06 04:52:00,
2013-11-05 21:23:00,54.0,28.0,-100.00,West,264,2.0,4.0,37,0.00,,,-99.99,0.000000,,2013-11-06 05:23:00,
2013-11-05 21:34:00,54.0,28.0,-100.00,West,264,2.0,4.0,37,0.00,,,-99.99,0.000000,,2013-11-06 05:34:00,
2013-11-05 21:44:00,54.0,28.0,-100.00,West,264,2.0,4.0,37,0.00,,,-99.99,0.000000,,2013-11-06 05:44:00,
2013-11-05 21:52:00,52.0,28.0,-100.00,NNE,33,1.0,4.0,40,0.00,,,0.00,0.000000,,2013-11-06 05:52:00,
2013-11-05 22:22:00,52.0,28.0,-100.00,NNE,33,1.0,4.0,40,0.00,,,0.00,0.000000,,2013-11-06 06:22:00,
2013-11-05 22:32:00,52.0,28.0,-100.00,NNE,33,1.0,4.0,40,0.00,,,0.00,0.000000,,2013-11-06 06:32:00,
2013-11-05 22:42:00,52.0,28.0,-100.00,NNE,33,1.0,4.0,40,0.00,,,0.00,0.000000,,2013-11-06 06:42:00,
2013-11-05 22:52:00,51.0,29.0,-100.00,NW,310,1.0,3.0,42,0.00,,,0.00,0.000000,,2013-11-06 06:52:00,
2013-11-05 23:21:00,51.0,29.0,-100.00,NW,310,1.0,3.0,42,0.00,,,0.00,0.000000,,2013-11-06 07:21:00,
2013-11-05 23:32:00,51.0,29.0,-100.00,NW,310,1.0,3.0,42,0.00,,,0.00,0.000000,,2013-11-06 07:32:00,
2013-11-05 23:42:00,51.0,29.0,-100.00,NW,310,1.0,3.0,42,0.00,,,0.00,0.000000,,2013-11-06 07:42:00,
2013-11-05 23:52:00,51.0,29.0,-100.00,ENE,58,2.0,5.0,43,0.00,,,0.00,0.000000,,2013-11-06 07:52:00,